7 Oct
2006
7 Oct
'06
11:06 p.m.
ISS 1 25544U 98067A 06280.83315972 .00017644 00000-0 11122-3 0 8153 2 25544 051.6380 327.1528 0013277 071.1247 272.2800 15.76661008450926
6649
Age (days ago)
6649
Last active (days ago)
0 comments
1 participants
participants (1)
-
Dave Larsen PhD